Regional Weather Roundup
Issued by NWS

Home | Current Version | Previous Version | Graphics & Text | Print | Product List | Glossary On
Versions: 1 2 3 4 5 6 7 8 9 10 11 12 13 14 15 16 17 18 19 20 21 22 23 24 25 26 27 28 29 30 31 32 33 34 35 36 37 38 39 40 41 42 43 44 45 46 47 48 49 50
000
ASUS43 KIND 241409
RWRIN

WEATHER ROUNDUP FOR INDIANA
NATIONAL WEATHER SERVICE INDIANAPOLIS IN
1000 AM EDT MON JUL 24 2017

NOTE: "FAIR" INDICATES FEW OR NO CLOUDS BELOW 12,000 FEET WITH NO
SIGNIFICANT WEATHER AND/OR OBSTRUCTIONS TO VISIBILITY.

* - STATION DOES NOT REPORT WEATHER SUCH AS PRECIPITATION OR FOG.

+ - STATION NOT QUALITY CONTROLLED BY THE NATIONAL WEATHER SERVICE.
    USE DATA WITH CAUTION...ESPECIALLY DEWPOINT AND RELATIVE
    HUMIDITY OBSERVATIONS.

INZ001>003-010>013-019-020-241500-
NORTHWEST INDIANA

CITY           SKY/WX    TMP DP  RH WIND       PRES   REMARKS
GARY /AIRPORT/ PTSUNNY   72  61  68 N14G25    30.00R
KNOX *+        MOSUNNY   70  63  78 N8        29.97S
LA PORTE +     CLOUDY    70  62  77 N15G21    29.99R
MICHIGAN CITY+ PTSUNNY   70  61  73 N13G18    29.99S
MONTICELLO +   CLOUDY    69  65  88 N9        29.97R
RENSSELAER +   CLOUDY    70  61  73 N9        29.99R
VALPARAISO     PTSUNNY   71  63  75 VRB7      29.99R

$$

LMZ046-743>745-241500-
SOUTHERN LAKE MICHIGAN

STATION/POSITION TIME  TEMP    WIND        PRES    WAVE
                       AIR SEA DIR/SP/G            HT
                 (UTC) (F)     (DEG/KT/KT) (MB)    (FT)
BURNS HARBOR     1340   70      20/ 18/ 21 1015.6S
MICHIGAN CITY    1340   68      10/ 19/ 22   N/A
5NW MICH CITY    1400   69 74   30/ 14/ 19   N/A     5

$$

INZ004-005-014>016-021>024-241500-
NORTH CENTRAL INDIANA

CITY           SKY/WX    TMP DP  RH WIND       PRES   REMARKS
ELKHART        PTSUNNY   70  61  73 N12       29.98R
GOSHEN         PTSUNNY   68  58  70 N6        29.97R
LOGANSPORT +   MOSUNNY   68  63  83 N8        29.98R
PERU/GRISSOM   SUNNY     72  64  76 N12       29.96R
ROCHESTER +    SUNNY     72  63  73 N9        29.97S
SOUTH BEND     CLOUDY    68  61  78 N12       29.98R
WARSAW +       MOSUNNY   68  61  77 N9        29.97R

$$

INZ006>009-017-018-025>027-241500-
NORTHEAST INDIANA

CITY           SKY/WX    TMP DP  RH WIND       PRES   REMARKS
AUBURN +       CLOUDY    66  61  82 N6        29.97R
FORT WAYNE     CLOUDY    69  62  78 N10       29.96R
HUNTINGTON +   PTSUNNY   68  65  88 N6        29.96R
KENDALLVILLE + CLOUDY    65  63  91 N6        29.97R

$$

INZ028-029-035-036-043>045-051>053-241500-
WEST CENTRAL INDIANA

CITY           SKY/WX    TMP DP  RH WIND       PRES   REMARKS
GREENCASTLE +  MOSUNNY   70  64  83 N7        29.98R
LAFAYETTE      PTSUNNY   73  66  78 N10       29.97R
TERRE HAUTE    SUNNY     74  67  78 N7        29.96S

$$

INZ030>032-037>040-046>048-054>057-064-065-241500-
CENTRAL INDIANA

CITY           SKY/WX    TMP DP  RH WIND       PRES   REMARKS
ANDERSON       MOSUNNY   73  64  73 MISG        N/A
CP ATTERBURY + SUNNY     73  66  78 N7        29.96R
COLUMBUS       SUNNY     73  66  78 N6        29.95R
FRANKFORT +    CLOUDY    74  68  79 N9        29.99R
GREENWOOD *+   SUNNY    N/A N/A N/A N5        29.97R
INDIANAPOLIS   MOSUNNY   74  66  76 N7        29.95R
-EAGLE CREEK   MOSUNNY   74  65  73 NW7       29.96R
KOKOMO +         N/A     73  65  75 N10       29.98
MARION +       CLOUDY    72  64  78 NW7       29.97R
MT COMFORT *+  MOSUNNY   72  66  83 N6        29.97R
SHELBYVILLE    MOSUNNY   75  66  73 N7        29.95R
ZIONSVILLE +   PTSUNNY   70  66  86 N7        29.98R

$$

INZ033-034-041-042-049-050-058-059-241500-
EAST CENTRAL INDIANA

CITY           SKY/WX    TMP DP  RH WIND       PRES   REMARKS
MUNCIE         MOSUNNY   74  66  76 N7        29.96R
RICHMOND +     SUNNY     72  66  83 N8        29.96R

$$

INZ060-061-067>069-081>083-085>088-241500-
SOUTHWEST INDIANA

CITY           SKY/WX    TMP DP  RH WIND       PRES   REMARKS
EVANSVILLE     SUNNY     82  71  69 CALM      29.94R
HUNTINGBURG *+ SUNNY     79  73  82 NW3       29.94R

$$

INZ062-063-066-070>080-084-089>092-241500-
SOUTH CENTRAL AND SOUTHEAST INDIANA

CITY           SKY/WX    TMP DP  RH WIND       PRES   REMARKS
BEDFORD +      SUNNY     75  66  73 NW3       29.94R
BLOOMINGTON    SUNNY     75  66  73 N6        29.95S
MADISON *+     SUNNY     77  68  73 NW6       29.96S
NORTH VERNON + MOSUNNY   73  68  83 N3        29.95R
SEYMOUR +      MOSUNNY  N/A N/A N/A NW5       29.94R

$$




USA.gov is the U.S. government's official web portal to all federal, state and local government web resources and services.